www.pogodaiklimat.ru

Погода и климат >> Архив погоды >> Россия >> Красноярский край >> Светлогорск


ПОГОДА в Светлогорске

  • Прогноз погоды в Светлогорске
  • Монитор погоды в Светлогорске

АРХИВ ПОГОДЫ в Светлогорске

Время (UTC), дата Ветер
(напр.,м/с)
 
Видим.   Явления Облачность Т
(С)
Тd
(С)
f
(%)
Тe
(С)
Тes
(С)
Комфортность P
(гПа)
Po
(гПа)
Тmin
(С)
Tmax
(С)
R
(мм)
R24
(мм)
S
(см)
03 13.05 С 2 н/о н/о -0.3 -11.0 44 -3 -3 1019.2 1006.4
06 13.05 С 2 н/о н/о +1.7 -12.0 35 -1 -1 1018.5 1005.9
09 13.05 С 4 н/о н/о +0.7 -9.3 47 -4 -4 1018.2 1005.5
12 13.05 С 3 н/о н/о +0.3 -9.9 46 -4 -4 1018.2 1005.5 +2.0
15 13.05 СВ 1 н/о н/о -2.3 -11.2 50 -4 -4 1018.0 1005.1
18 13.05 СВ 2 н/о н/о -7.1 -12.2 67 -11 -11 1018.3 1005.2
21 13.05 В 3 н/о н/о -6.1 -12.7 60 -11 -11 1019.1 1006.0
00 14.05 СВ 2 н/о н/о -5.1 -13.0 54 -9 -9 1020.2 1007.1 -9.3 105
03 14.05 СВ 2 н/о н/о +0.3 -10.3 45 -2 -2 1020.4 1007.6
06 14.05 СВ 3 н/о н/о +2.5 -9.5 41 -1 -1 1020.4 1007.7
09 14.05 С 2 н/о н/о +4.3 -7.1 43 +2 +2 1020.4 1007.8
12 14.05 С 3 н/о н/о +2.3 -5.9 55 -1 -1 1020.8 1008.1 +5.1
15 14.05 СВ 2 н/о н/о -0.3 -7.7 57 -3 -3 1020.9 1008.1
18 14.05 С 2 н/о н/о -3.8 -9.0 67 -8 -8 1020.7 1007.7
21 14.05 С 1 н/о н/о -7.0 -10.1 79 -9 -9 1020.8 1007.7
00 15.05 СВ 3 н/о н/о -2.6 -11.3 51 -7 -7 1020.8 1007.9 -7.4 104
03 15.05 СВ 2 н/о н/о +1.3 -10.8 40 -1 -1 1020.9 1008.2
06 15.05 СВ 2 н/о н/о +3.7 -12.7 29 +2 +2 1020.3 1007.7
09 15.05 СВ 2 н/о н/о +3.7 -10.6 34 +2 +2 1020.7 1008.1
12 15.05 С 2 н/о н/о +2.6 -9.8 40 0 0 1020.9 1008.2 +4.1
15 15.05 С 1 н/о н/о -0.7 -8.6 55 -2 -2 1021.2 1008.4
18 15.05 С 2 н/о н/о -5.9 -9.8 74 -10 -10 1021.6 1008.5
21 15.05 С 2 н/о н/о -6.9 -10.9 73 -11 -11 1021.9 1008.8
00 16.05 С 2 н/о н/о -2.9 -11.3 52 -6 -6 1022.1 1009.2 -7.7 102
03 16.05 СВ 2 н/о н/о +1.1 -8.4 49 -2 -2 1022.1 1009.3
06 16.05 С 3 н/о н/о +3.1 -8.4 43 0 0 1021.6 1008.9
09 16.05 С 3 н/о н/о +4.1 -8.4 40 +1 +1 1021.6 1009.0
12 16.05 СВ 2 н/о н/о +3.9 -7.9 42 +2 +2 1021.3 1008.7 +4.8
15 16.05 В 2 н/о н/о +2.0 -8.9 44 -0 -0 1021.5 1008.8
18 16.05 СВ 2 н/о н/о -1.7 -9.5 55 -5 -5 1021.6 1008.7
21 16.05 СВ 2 н/о н/о -4.7 -10.8 62 -9 -9 1021.7 1008.7
00 17.05 В 3 н/о н/о -1.7 -11.7 46 -6 -6 1021.4 1008.5 -5.9 101
03 17.05 СВ 4 н/о н/о +1.9 -9.3 43 -2 -2 1021.0 1008.3
06 17.05 СВ 2 н/о н/о +5.1 -6.9 42 +3 +3 1020.3 1007.8
09 17.05 В 2 н/о н/о +6.1 -7.7 36 +5 +5 1020.1 1007.6
12 17.05 В 2 н/о н/о +6.8 -9.2 31 +5 +5 1019.8 1007.3 +7.0
15 17.05 В 2 н/о н/о +2.7 -6.3 51 0 0 1020.0 1007.4
18 17.05 В 4 н/о н/о 0.0 -6.5 62 -5 -5 1020.5 1007.7
21 17.05 В 3 н/о н/о -1.8 -7.4 66 -6 -6 1020.4 1007.5
00 18.05 В 4 н/о н/о -0.2 -7.3 59 -5 -5 1020.0 1007.2 -1.9 98
03 18.05 СВ 3 н/о н/о +3.4 -5.8 51 0 0 1019.5 1006.9
06 18.05 В 4 н/о н/о +8.6 -8.5 29 +6 +6 1018.1 1005.7
09 18.05 ЮВ 4 н/о н/о +9.0 -9.0 27 +7 +7 1017.0 1004.7
12 18.05 В 4 н/о н/о +8.6 -8.5 29 +6 +6 1016.5 1004.2 +9.3
15 18.05 В 3 н/о н/о +5.4 -7.1 40 +3 +3 1016.0 1003.5
18 18.05 СВ 4 н/о н/о +0.3 -5.8 64 -5 -5 1014.9 1002.2
21 18.05 СВ 4 н/о н/о -0.2 -6.7 62 -5 -5 1013.2 1000.6
00 19.05 В 3 н/о н/о +3.7 -6.3 48 +1 +1 1011.5 999.0 -0.5 89
03 19.05 В 4 н/о н/о +7.2 -4.9 42 +4 +4 1009.2 996.9
06 19.05 ЮВ 4
{11}
н/о н/о +7.2 -1.9 52 +4 +4 1008.3 996.0
09 19.05 В 4
{11}
н/о н/о +6.1 -0.6 62 +3 +3 1007.1 994.8
12 19.05 В 4 н/о н/о +6.1 -0.4 63 +3 +3 1006.3 994.0 +7.8 0.0
15 19.05 В 3 н/о н/о +3.6 +1.5 86 -0 -0 1005.8 993.4
18 19.05 В 4 н/о н/о +2.0 +0.8 92 -3 -3 1004.1 991.7
21 19.05 СВ 4 н/о н/о +1.9 +0.8 92 -3 -3 1001.8 989.4
00 20.05 В 3 н/о н/о +2.5 +0.7 88 -2 -2 999.9 987.5 +1.8 103

 

Местоположение метеостанции Светлогорск (Красноярский край, Россия): широта 66.95 долгота 88.42 высота над уровнем моря 101 м.

В архиве по умолчанию представлена погода в Светлогорске за последнюю неделю. Архивные данные за месяц целиком и за предыдущие месяцы, начиная с января 2011 года, Вы можете получить, выбрав интересующий диапазон дат из раскрывающегося списка и нажав кнопку "Ввод!".


*Определитесь, кто Вы:
робот инопланетянин человек

Внимание! Время в таблицах - всемирное. Для получения местного времени необходимо прибавить поправку, которая равна 7 ч.

Смотрите также архив погоды в соседних городах и на ближайших метеорологических станциях:

Погода в Горбиачине (Красноярский край, Россия) (64 км)
Погода в Курейке (Красноярский край, Россия) (75 км)
Погода в Игарке (Красноярский край, Россия) (98 км)
Погода в Снежногорске (Красноярский край, Россия) (131 км)
Погода в Туруханске (Красноярский край, Россия) (132 км)
Погода в Большом Пороге (Эвенкия, Россия) (164 км)
Погода в Советской Речке (Красноярский край, Россия) (202 км)
Погода в Потапово (Красноярский край, Россия) (212 км)
Погода в Агате (Эвенкия, Россия) (220 км)
Погода в Норильске (Красноярский край, Россия) (265 км)

Пояснения к столбцам:

Ветер - указаны скорость ветра в м/с - средняя за 10 мин, порывы в срок и между сроками (в фигурных скобках) и направление, откуда дует ветер: С - северный, СВ - северо-восточный, В - восточный, ЮВ - юго-восточный, Ю - южный, ЮЗ - юго-западный, З - западный, СЗ - северо-западный.
Видимость - горизонтальная дальность видимости в метрах или километрах. При видимости от 1 до 10 км при отсутствии осадков обычно наблюдается дымка, при ухудшении видимости до 1 км и менее - туман. В сухую погоду видимость может ухудшаться дымом, пылью или мглою.
Явления - указаны атмосферные явления, наблюдавшиеся в срок или в последний час перед сроком; фигурными скобками обозначены явления, наблюдавшиеся между сроками (за 1-3 часа до срока); квадратными скобками обозначены град или гололедные отложения с указанием их диаметра в мм.
Облачность - указаны через наклонную черту общая и нижняя облачность в баллах и высота нижней границы облаков в метрах; квадратными скобками обозначены формы облаков: Ci - перистые, Cs - перисто-слоистые, Cc - перисто-кучевые, Ac - высококучевые, As - высокослоистые, Sc - слоисто-кучевые, Ns - слоисто-дождевые, Cu - кучевые, Cb - кучево-дождевые. Подробнее классификацию облаков см. в Атласе облаков (PDF).
T - Температура воздуха - температура, измеренная на высоте 2 м над землей.
Td - Температура точки росы - температура, при понижении до которой содержащийся в воздухе водяной пар достигнет насыщения.
f - Относительная влажность воздуха - влажноcть воздуха, измеренная на высоте 2 м над землей.
Te - Эффективная температура - температура, которую ощущает одетый по сезону человек в тени. Характеристика душности погоды. При расчете учитывается влияние влажности воздуха и скорости ветра на теплоощущения человека.
Tes - Эффективная температура на солнце - температура, которую ощущает человек, с поправкой на солнечный нагрев. Характеристика знойности погоды. Зависит от высоты солнца над горизонтом, облачности и скорости ветра. Ночью, в пасмурную погоду, а также при ветре 12 м/с и более поправка равна нулю.
P - Атмосферное давление - приведенное к уровню моря атмосферное давление.
Po - Атмосферное давление - измеренное на уровне метеостанции атмосферное давление.
Tmin - Минимальная температура - минимум температуры воздуха на высоте 2 м над землей.
Tmax - Максимальная температура - максимум температуры воздуха на высоте 2 м над землей.
R - Количество осадков - Количество выпавших осадков за период времени, мм. При наведении курсора мыши на число - период времени, за который выпало указанное количество осадков.
R24 - Количество осадков - Количество выпавших осадков за 24 часа, мм.
S - Снежный покров - Высота снежного покрова, см. При наведении курсора мыши на число - состояние снежного покрова и степень покрытия местности в баллах.